Tracking 18980 objects as of 21-Feb-2018
HD Live streaming from Space Station
objects crossing your sky now

NOAA 16 DEB

Track NOAA 16 DEB now!
10-day predictions


NORAD ID: 41208
Int'l Code: 2000-055DM
Perigee: 856.2 km
Apogee: 915.6 km
Inclination: 98.8 °
Period: 102.5 minutes
Semi major axis: 7256 km
RCS: Unknown
Launch date: September 21, 2000
Source: United States (US)
Launch site: AIR FORCE WESTERN TEST RANGE (AFWTR)

Note: This is SATELLITE DEBRIS
aabbcc
Your satellite tracking list
Your tracking list is empty




NASA's NSSDC Master Catalog

Two Line Element Set (TLE):
1 41208U 00055DM  18051.38349480 +.00000820 +00000-0 +53842-3 0  9994
2 41208 098.8373 112.8411 0040921 188.3150 171.7344 14.04354185111796
Source of the keplerian elements: AFSPC